Lexington Weather

Lexington, Massachusetts, USA

27°F
12/12/2019 4:55pm 
  • Lexington Conditions: Partly cloudy
  • Temperature: 26.6°F / -3.0°CColder 2.0°F than last hour.
  • Dew Point: 20.1°FIncreased 0.3°Fsince last hour.
  • Relative Humidity: 76%Increased 7.0% since last hour.
  • Wind: Wind from WSW WSW 2 mph, 10-min avg: 1 mph, gust: 2 mph
  • Barometer: 30.66 in Steady
  • Visibility: 10 miles
  • Snow Today: 0.0 in
  •   

Regional Weather Roundup
for Boston / Norton, MA

        
000
ASUS41 KBOX 100310
RWRBOX

REGIONAL WEATHER ROUNDUP
NATIONAL WEATHER SERVICE BOSTON/NORTON MA
1000 PM EST MON DEC 09 2019

NOTE:  "FAIR" INDICATES FEW OR NO CLOUDS BELOW 12,000 FEET WITH NO 
SIGNIFICANT WEATHER AND/OR OBSTRUCTIONS TO VISIBILITY.

MAZALL-100400-
EASTERN MASSACHUSETTS
  
CITY           SKY/WX    TMP DP  RH WIND       PRES   REMARKS
BOSTON         LGT RAIN  59  54  83 S20G26    29.71F                  
BEVERLY        LGT RAIN  55  53  93 S12G20    29.70F                  
LAWRENCE       NOT AVBL                                               
BEDFORD        LGT RAIN  54  50  86 S13       29.69F                  
BLUE HILL        N/A     55  55 100 S25G40    29.70F                  
NORWOOD        LGT RAIN  60  54  80 S13G23    29.71F                  
MARSHFIELD     NOT AVBL                                               
PLYMOUTH       NOT AVBL                                               
TAUNTON        RAIN      61  57  87 SW15G29   29.76F FOG              
NEW BEDFORD    HVY RAIN  59  59 100 SW31G45   29.78F FOG              
$$

MAZALL-100400-
CAPE COD AND THE ISLANDS
  
CITY           SKY/WX    TMP DP  RH WIND       PRES   REMARKS
FALMOUTH       CLOUDY    57  57 100 SW26G41   29.81F FOG              
HYANNIS        LGT RAIN  54  52  94 S17G31    29.80F FOG              
CHATHAM        HVY RAIN  54  54 100 SW17G31   29.85F FOG              
PROVINCETOWN   LGT RAIN  54  54 100 S16G26    29.78                   
NANTUCKET      LGT RAIN  55  52  89 S28G39    29.85F                  
MARTHAS VNYRD  LGT RAIN  57  56  96 S26G38    29.82F FOG              
$$
 
MAZALL-100400-
CENTRAL AND WESTERN MASSACHUSETTS
  
CITY           SKY/WX    TMP DP  RH WIND       PRES   REMARKS
WORCESTER      NOT AVBL                                               
FITCHBURG      NOT AVBL                                               
ORANGE         LGT RAIN  50  47  89 S16       29.68F                  
SPRINGFIELD    DRZL/FOG  48  48 100 S13       29.69F VSB 3/4          
WESTFIELD      LGT RAIN  48  46  93 S9        29.69F FOG              
NORTH ADAMS    LGT RAIN  49  46  90 MISG      29.64F FOG              
$$
 
RIZALL-100400-
RHODE ISLAND
  
CITY           SKY/WX    TMP DP  RH WIND       PRES   REMARKS
PROVIDENCE     RAIN      58  57  97 S16G25    29.76F                  
NEWPORT        RAIN      58  56  93 S22G37    29.77F FOG              
WESTERLY       RAIN      58  54  86 S16G26    29.78F FOG              
$$
 
CTZALL-100400-
CONNECTICUT
  
CITY           SKY/WX    TMP DP  RH WIND       PRES   REMARKS
BRADLEY INTL   DRIZZLE   50  48  93 S8        29.70F FOG              
HARTFORD       CLOUDY    56  53  90 S18G30    29.71F                  
BRIDGEPORT     LGT RAIN  53  51  93 SW16      29.75S                  
DANBURY        CLOUDY    54  51  90 SW15G23   29.74F                  
GROTON         RAIN      54  54 100 S20       29.76F FOG              
NEW HAVEN      CLOUDY    55  52  89 SW10      29.75F                  
CHESTER        CLOUDY    57  57 100 SW9G28    29.75F                  
MERIDEN        CLOUDY    54  53  97 S13G20    29.72F FOG              
WILLIMANTIC    LGT RAIN  57  55  93 S14G25    29.73F FOG              
OXFORD         LGT RAIN  53  53 100 SW13G18   29.73F FOG              
$$

MEZ002-015-021-024-NHZ003-005-008-011-012-014-VTZ005-008-100400-
NORTHERN NEW ENGLAND
  
CITY           SKY/WX    TMP DP  RH WIND       PRES   REMARKS
PORTLAND ME    LGT RAIN  52  49  89 S13G21    29.67F VSB 1/2          
BANGOR ME      LGT RAIN  52  50  93 S22G33    29.67F                  
CONCORD NH     LGT RAIN  47  47 100 S7        29.66F VSB 3/4          
MANCHESTER NH  LGT RAIN  50  49  96 S10       29.66F                  
NASHUA NH      LGT RAIN  48  48 100 VRB3      29.68F FOG              
PORTSMOUTH NH  NOT AVBL                                               
JAFFREY NH     LGT RAIN  50  48  93 S15G23    29.66F FOG              
KEENE NH       NOT AVBL                                               
BURLINGTON VT  NOT AVBL                                               
MT. WASHINGTON NOT AVBL                                               
$$

NYZ052-076-100400-
EASTERN NEW YORK
  
CITY           SKY/WX    TMP DP  RH WIND       PRES   REMARKS
ALBANY         LGT RAIN  47  43  86 S14       29.63F                  
NEW YORK CITY  LGT RAIN  55  51  86 SW21G30   29.76F                  
$$
 
ANZALL-100400-
MARINE OBSERVATIONS
  
STATION/POSITION TIME  TEMP    WIND        PRES    VSBY  WAVE
                       AIR SEA DIR/SP/G                  HT/PER
                 (UTC) (F)     (DEG/KT/KT) (MB)    (MI)  (FT/S)
BOSTON BUOY      0150   51 48  160/ 12/ 14 1007.7          3/ 5
BUZZARDS BAY     0200   55     200/ 25/ 28 1009.4F
NANTUCKET SOUND  0240   53 43              1010.1F
MASS BAY-STELLWA NOT AVBL
ISLE OF SHOALS   0200   50     170/ 21/ 21 1006.0F
S OF BLOCK IS    0230      52                N/A          14/ 9
$$

......................KEY.........................
  SKY/WX - SKY CONDITION/PRESENT WEATHER
  TMP    - TEMPERATURE IN FAHRENHEIT
  DWPT   - DEWPOINT IN FAHRENHEIT
  RH     - RELATIVE HUMIDITY IN PERCENT
  WIND   - DIRECTION AND SPEED IN MPH
  PRES   - MEAN SEA LEVEL PRESSURE IN INCHES OF HG
  WCI    - WIND CHILL INDEX
  VSB    - VISIBILITY IN MILES
  HX     - HEAT INDEX
  TC     - TEMPERATURE IN CELSIUS
  VRB    - VARIABLE WIND DIRECTION
  N/A    - NOT AVAILABLE
  
      

Other recent Regional Weather Roundups

Thu Dec 12, 4:10pm

Thu Dec 12, 4:01pm

Thu Dec 12, 3:10pm

Thu Dec 12, 3:00pm

Thu Dec 12, 2:10pm

Thu Dec 12, 2:01pm

Thu Dec 12, 1:10pm

Thu Dec 12, 1:00pm

Thu Dec 12, 12:10pm

Thu Dec 12, 12:00pm

Thu Dec 12, 11:10am

Thu Dec 12, 11:00am

Thu Dec 12, 10:10am

Thu Dec 12, 8:10am

Thu Dec 12, 8:00am

Thu Dec 12, 7:10am

Thu Dec 12, 7:00am

Thu Dec 12, 6:10am

Thu Dec 12, 6:00am

Thu Dec 12, 5:10am

Thu Dec 12, 5:00am

Thu Dec 12, 4:10am

Thu Dec 12, 4:00am

Thu Dec 12, 3:10am

Thu Dec 12, 3:00am

Thu Dec 12, 2:10am

Thu Dec 12, 2:00am

Thu Dec 12, 1:10am

Thu Dec 12, 1:00am

Thu Dec 12, 12:10am

Thu Dec 12, 12:00am

Wed Dec 11, 11:10pm

Wed Dec 11, 11:00pm

Wed Dec 11, 10:10pm

Wed Dec 11, 10:00pm

Wed Dec 11, 9:10pm

Wed Dec 11, 9:00pm

Wed Dec 11, 8:10pm

Wed Dec 11, 8:00pm

Wed Dec 11, 7:10pm

Wed Dec 11, 7:00pm

Wed Dec 11, 6:10pm

Wed Dec 11, 6:00pm

Wed Dec 11, 5:10pm

Wed Dec 11, 5:01pm

Wed Dec 11, 4:10pm

Wed Dec 11, 4:00pm

Wed Dec 11, 3:10pm

Wed Dec 11, 3:01pm

Wed Dec 11, 2:10pm

Wed Dec 11, 2:00pm

Wed Dec 11, 1:10pm

Wed Dec 11, 1:00pm

Wed Dec 11, 12:10pm

Wed Dec 11, 12:00pm

Wed Dec 11, 11:10am

Wed Dec 11, 11:00am

Wed Dec 11, 10:10am

Wed Dec 11, 10:00am

Wed Dec 11, 9:10am

Wed Dec 11, 9:00am

Wed Dec 11, 8:10am

Wed Dec 11, 8:00am

Wed Dec 11, 7:10am

Wed Dec 11, 7:00am

Wed Dec 11, 6:10am

Wed Dec 11, 6:00am

Wed Dec 11, 5:10am

Wed Dec 11, 5:00am

Wed Dec 11, 4:10am

Wed Dec 11, 4:00am

Wed Dec 11, 3:10am

Wed Dec 11, 3:01am

Wed Dec 11, 2:10am

Wed Dec 11, 2:01am

Wed Dec 11, 1:10am

Wed Dec 11, 1:00am

Wed Dec 11, 12:10am

Wed Dec 11, 12:00am

Tue Dec 10, 11:10pm

Tue Dec 10, 11:00pm

Tue Dec 10, 10:10pm

Tue Dec 10, 10:00pm

Tue Dec 10, 9:10pm

Tue Dec 10, 9:01pm

Tue Dec 10, 8:10pm

Tue Dec 10, 8:00pm

Tue Dec 10, 7:10pm

Tue Dec 10, 7:01pm

Tue Dec 10, 6:10pm

Tue Dec 10, 6:01pm

Tue Dec 10, 5:10pm

Tue Dec 10, 5:00pm

Tue Dec 10, 4:10pm

Tue Dec 10, 4:01pm

Tue Dec 10, 3:10pm

Tue Dec 10, 3:01pm

Tue Dec 10, 2:10pm

Tue Dec 10, 2:01pm

Tue Dec 10, 1:10pm

Tue Dec 10, 1:00pm

Tue Dec 10, 12:10pm

Tue Dec 10, 12:00pm

Tue Dec 10, 11:10am

Tue Dec 10, 11:00am

Tue Dec 10, 10:10am

Tue Dec 10, 10:00am

Tue Dec 10, 9:10am

Tue Dec 10, 9:01am

Tue Dec 10, 8:10am

Tue Dec 10, 8:00am

Tue Dec 10, 7:10am

Tue Dec 10, 7:00am

Tue Dec 10, 6:10am

Tue Dec 10, 6:00am

Tue Dec 10, 5:10am

Tue Dec 10, 5:00am

Tue Dec 10, 4:10am

Tue Dec 10, 4:00am

Tue Dec 10, 3:10am

Tue Dec 10, 3:00am

Tue Dec 10, 2:10am

Tue Dec 10, 2:01am

Tue Dec 10, 1:10am

Tue Dec 10, 1:00am

Tue Dec 10, 12:10am

Tue Dec 10, 12:01am

Mon Dec 9, 11:10pm

Mon Dec 9, 11:01pm

Mon Dec 9, 10:00pm

Mon Dec 9, 9:10pm

Mon Dec 9, 9:01pm

Mon Dec 9, 8:10pm

Mon Dec 9, 8:01pm

Mon Dec 9, 7:10pm

Mon Dec 9, 7:00pm

Mon Dec 9, 6:10pm

Mon Dec 9, 6:00pm

Mon Dec 9, 5:10pm

Mon Dec 9, 5:01pm

Meta data:

ID: 27a41075-b51c-4e5e-901c-6c9619c3beed
Link: https://api.weather.gov/products/27a41075-b51c-4e5e-901c-6c9619c3beed